Regional Weather Roundup
Issued by NWS

Home | Current Version | Previous Version | Graphics & Text | Print | Product List | Glossary On
Versions: 1 2 3 4 5 6 7 8 9 10 11 12 13 14 15 16 17 18 19 20 21 22 23 24 25 26 27 28 29 30 31 32 33 34 35 36 37 38 39 40 41 42 43 44 45 46 47 48 49 50
520
ASUS44 KJAN 280303
RWRMS

MISSISSIPPI HOURLY WEATHER ROUNDUP
NATIONAL WEATHER SERVICE JACKSON MS
900 PM CST THU NOV 27 2014

NOTE: "FAIR: INDICATES FEW OR NO CLOUDS BELOW 12,000 FEET WITH NO
SIGNIFICANT WEATHER AND/OR OBSTRUCTIONS TO VISIBILITY.

MSZ001>002-007>008-010>013-018>021-025>028-034>036-280400-
NORTHWEST MISSISSIPPI

CITY           SKY/WX    TMP DP  RH WIND       PRES   REMARKS
CLARKSDALE     FAIR      36  32  87 CALM      30.49S
CLEVELAND      FAIR      35  33  94 CALM      30.48F
GREENWOOD      CLEAR     32  29  88 NE3       30.49R
GREENVILLE     CLEAR     34  31  88 CALM      30.48S
GRENADA        FAIR      32  30  93 CALM      30.49S
OLIVE BRANCH   CLEAR     32  32 100 CALM      30.48S
OXFORD         FAIR      28  27  93 NE3       30.49F
TUNICA         CLEAR     34  32  93 CALM      30.49S
$$

MSZ003>006-009-014>017-022>024-029>033-037>039-280400-
NORTHEAST MISSISSIPPI

CITY           SKY/WX    TMP DP  RH WIND       PRES   REMARKS
COLUMBUS AFB   CLEAR     29  27  91 N1        30.49R
CORINTH        FAIR      32  25  74 CALM      30.49S
GOLDN TRIANGLE CLEAR     32  27  80 N7        30.47R WCI  26
STARKVILLE       N/A     30  28  93 CALM      30.48R
TUPELO         CLEAR     31  26  82 NE6       30.50R WCI  25
$$

MSZ040-058-280400-
CENTRAL MISSISSIPPI

CITY           SKY/WX    TMP DP  RH WIND       PRES   REMARKS
JACKSON INTL   CLEAR     37  31  78 N3        30.47S
JACKSON HAWKNS CLEAR     37  30  75 CALM      30.47S
MERIDIAN KEY   CLEAR     33  29  85 CALM      30.47S
MERIDIAN NAS   CLEAR     33  29  85 CALM      30.47S
RAYMOND        FAIR      32  28  86 MISG      30.48S
VICKSBURG      CLEAR     32  29  88 CALM      30.50R
$$

MSZ059>079-280400-
SOUTH MISSISSIPPI

CITY           SKY/WX    TMP DP  RH WIND       PRES   REMARKS
BROOKHAVEN     FAIR      37  32  81 CALM      30.47S
HATTIESBURG    CLEAR     39  34  82 CALM      30.45F
MCCOMB         CLEAR     43  30  60 N5        30.45R
NATCHEZ        CLEAR     36  30  80 NE3       30.48S
PINE BELT      CLEAR     37  28  70 N5        30.45S WCI  34
$$

MSZ080>082-280400-
COASTAL MISSISSIPPI

CITY           SKY/WX    TMP DP  RH WIND       PRES   REMARKS
BILOXI         CLEAR     47  34  60 VRB2      30.45R
PASCAGOULA     CLEAR     43  32  65 N6        30.45R
GULFPORT       CLEAR     41  35  79 N3        30.45R
$$



USA.gov is the U.S. government's official web portal to all federal, state and local government web resources and services.